Weather History for Melbourne Airport, Victoria

Change the Weather History Date:

Thursday, August 8, 2013

  Actual Average Record
Temperature  
Mean Temperature 47 °F -  
Max Temperature 54 °F 56 °F - ()
Min Temperature 40 °F 42 °F - ()
Degree Days  
Heating Degree Days 18    
Moisture  
Dew Point 41 °F    
Average Humidity 77    
Maximum Humidity 93    
Minimum Humidity 48    
Precipitation  
Precipitation 0.03 in 0.07 in - ()
Sea Level Pressure  
Sea Level Pressure 29.99 in    
Wind  
Wind Speed 11 mph ()    
Max Wind Speed 17 mph    
Max Gust Speed -    
Visibility 8.1 miles    
Events Rain    
T = Trace of Precipitation, MM = Missing Value Source: Averaged Metar Reports

Daily Weather History Graph

Daily Weather History Graph

Search for Another Location

Airport:

Trip Planner

Search our weather history database for the weather conditions in past years. The results will help you decide how hot, cold, wet, or windy it might be!

Date:

Astronomy

Aug. 08, 2013 Rise Set
Actual Time 7:13 AM AEST 5:39 PM AEST
Civil Twilight 6:46 AM AEST 6:06 PM AEST
Nautical Twilight 6:15 AM AEST 6:38 PM AEST
Astronomical Twilight 5:44 AM AEST 7:08 PM AEST
Moon 7:28 AM AEST (8/8) 7:04 PM AEST (8/8)
Length of Visible Light 11h 20m
Length of Day
10h 25m
New Moon, 1% of the Moon is Illuminated
Aug 8
New Moon
Aug 14
First Quarter
Aug 21
Full
Aug 28
Last Quarter
Sep 5
New

Hourly Weather History & Observations

Time (AEST) Temp. Windchill Dew Point Humidity Pressure Visibility Wind Dir Wind Speed Gust Speed Precip Events Conditions
12:00 AM 44 °F - 42 °F 90% 29.88 in 16 mi WSW 17.3 mph - -   Overcast
12:00 AM 44.6 °F 37.2 °F 42.8 °F 93% 29.86 in 6.2 mi WSW 17.3 mph - N/A   Mostly Cloudy
12:30 AM 44.6 °F 37.8 °F 42.8 °F 93% 29.86 in 6.2 mi WSW 15.0 mph - N/A   Mostly Cloudy
1:00 AM 45 °F - 43 °F 90% 29.89 in - WSW 17.3 mph - -  
1:00 AM 44.6 °F 37.2 °F 42.8 °F 93% 29.89 in 6.2 mi WSW 17.3 mph - N/A Rain Light Rain
1:30 AM 44.6 °F 38.4 °F 42.8 °F 93% 29.89 in 6.2 mi WSW 12.7 mph - N/A Rain Light Rain
2:00 AM 45 °F - 42 °F 84% 29.91 in - WSW 16.1 mph - -  
2:00 AM 44.6 °F 37.4 °F 41.0 °F 87% 29.89 in 6.2 mi WSW 16.1 mph - N/A   Mostly Cloudy
2:30 AM 44.6 °F 37.4 °F 41.0 °F 87% 29.89 in 6.2 mi WSW 16.1 mph - N/A   Mostly Cloudy
3:00 AM 44 °F - 42 °F 89% 29.93 in 9 mi WSW 17.3 mph - - Rain Light Rain
3:00 AM 44.6 °F 37.2 °F 42.8 °F 93% 29.92 in 6.2 mi WSW 17.3 mph - N/A Rain Light Rain
3:14 AM 44.6 °F 38.1 °F 42.8 °F 93% 29.92 in 3.7 mi SW 13.8 mph - N/A Rain Rain
3:30 AM 44.6 °F 38.1 °F 42.8 °F 93% 29.92 in 6.2 mi WSW 13.8 mph - N/A   Mostly Cloudy
4:00 AM 44 °F - 42 °F 89% 29.95 in - WSW 16.1 mph - -  
4:00 AM 44.6 °F 37.4 °F 42.8 °F 93% 29.92 in 6.2 mi WSW 16.1 mph - N/A   Mostly Cloudy
4:30 AM 42.8 °F 36.6 °F 41.0 °F 93% 29.95 in 6.2 mi WSW 11.5 mph - N/A   Mostly Cloudy
5:00 AM 44 °F - 42 °F 90% 29.98 in - WSW 12.7 mph - -  
5:00 AM 44.6 °F 38.4 °F 42.8 °F 93% 29.95 in 5.6 mi WSW 12.7 mph - N/A Rain Light Rain
5:30 AM 42.8 °F 36.6 °F 41.0 °F 93% 29.95 in 6.2 mi West 11.5 mph - N/A   Mostly Cloudy
6:00 AM 43 °F - 41 °F 90% 29.99 in 16 mi WSW 10.4 mph - -   Partly Cloudy
6:00 AM 42.8 °F 37.0 °F 41.0 °F 93% 29.98 in 6.2 mi WSW 10.4 mph - N/A   Mostly Cloudy
6:30 AM 41.0 °F 36.4 °F 39.2 °F 93% 29.98 in 6.2 mi WSW 6.9 mph - N/A   Partly Cloudy
7:00 AM 41 °F - 39 °F 92% 30.01 in - SW 6.9 mph - -  
7:00 AM 41.0 °F 36.4 °F 39.2 °F 93% 30.01 in 6.2 mi SW 6.9 mph - N/A   Partly Cloudy
7:30 AM 41.0 °F 35.2 °F 39.2 °F 93% 30.01 in 6.2 mi WSW 9.2 mph - N/A   Partly Cloudy
8:00 AM 43 °F - 41 °F 88% 30.04 in - WSW 10.4 mph - -  
8:00 AM 42.8 °F 37.0 °F 41.0 °F 93% 30.01 in 6.2 mi WSW 10.4 mph - N/A   Partly Cloudy
8:30 AM 44.6 °F 39.2 °F 41.0 °F 87% 30.04 in 6.2 mi West 10.4 mph - N/A   Partly Cloudy
9:00 AM 46 °F - 42 °F 81% 30.06 in 19 mi WSW 12.7 mph - -   Scattered Clouds
9:00 AM 46.4 °F 40.7 °F 42.8 °F 87% 30.04 in 6.2 mi WSW 12.7 mph - N/A   Partly Cloudy
9:30 AM 48.2 °F - 42.8 °F 82% 30.04 in 6.2 mi WSW 12.7 mph - N/A   Partly Cloudy
10:00 AM 49 °F - 44 °F 75% 30.06 in - SW 13.8 mph - -  
10:00 AM 50.0 °F - 42.8 °F 76% 30.04 in 6.2 mi SW 13.8 mph - N/A Rain Light Rain Showers
10:30 AM 50.0 °F - 44.6 °F 82% 30.04 in 6.2 mi SW 8.1 mph - N/A   Scattered Clouds
11:00 AM 51 °F - 43 °F 67% 30.07 in - SW 10.4 mph - -  
11:00 AM 50.0 °F - 42.8 °F 76% 30.04 in 6.2 mi SW 10.4 mph - N/A   Mostly Cloudy
11:30 AM 50.0 °F - 42.8 °F 76% 30.04 in 6.2 mi South 9.2 mph - N/A   Scattered Clouds
12:00 PM 53 °F - 41 °F 54% 30.06 in 19 mi SSW 9.2 mph - -   Partly Cloudy
12:00 PM 53.6 °F - 41.0 °F 62% 30.04 in 6.2 mi South 9.2 mph - N/A   Partly Cloudy
12:30 PM 53.6 °F - 41.0 °F 62% 30.04 in 6.2 mi South 9.2 mph - N/A   Scattered Clouds
1:00 PM 54 °F - 42 °F 53% 30.04 in - South 9.2 mph - -  
1:00 PM 53.6 °F - 41.0 °F 62% 30.01 in 6.2 mi South 9.2 mph - N/A   Scattered Clouds
1:30 PM 51.8 °F - 41.0 °F 67% 30.01 in 6.2 mi South 8.1 mph - N/A   Scattered Clouds
2:00 PM 53 °F - 40 °F 50% 30.04 in - South 6.9 mph - -  
2:00 PM 53.6 °F - 39.2 °F 58% 30.01 in 6.2 mi South 6.9 mph - N/A   Scattered Clouds
2:30 PM 53.6 °F - 39.2 °F 58% 30.01 in 6.2 mi SSE 8.1 mph - N/A   Mostly Cloudy
3:00 PM 53 °F - 39 °F 48% 30.03 in 19 mi SSE 6.9 mph - -   Partly Cloudy
3:00 PM 53.6 °F - 39.2 °F 58% 30.01 in 6.2 mi SSE 6.9 mph - N/A   Scattered Clouds
3:30 PM 53.6 °F - 39.2 °F 58% 30.01 in 6.2 mi South 4.6 mph - N/A   Mostly Cloudy
4:00 PM 53.6 °F - 39.2 °F 58% 30.01 in 6.2 mi SSE 9.2 mph - N/A   Scattered Clouds
4:30 PM 51.8 °F - 41.0 °F 67% 30.01 in 6.2 mi SSE 6.9 mph - N/A   Mostly Cloudy
5:00 PM 52 °F - 39 °F 50% 30.03 in - SE 5.8 mph - -  
5:00 PM 51.8 °F - 39.2 °F 62% 30.01 in 6.2 mi SE 5.8 mph - N/A   Mostly Cloudy
5:30 PM 50.0 °F - 39.2 °F 66% 30.01 in 6.2 mi East 5.8 mph - N/A   Mostly Cloudy
6:00 PM 49 °F - 40 °F 61% 30.04 in 19 mi ENE 4.6 mph - -   Partly Cloudy
6:00 PM 50.0 °F - 39.2 °F 66% 30.01 in - ENE 4.6 mph - N/A   Clear
6:30 PM 48.2 °F - 39.2 °F 71% 30.04 in - NE 4.6 mph - N/A   Clear
7:00 PM 48 °F - 40 °F 64% 30.05 in - North 5.8 mph - -  
7:00 PM 48.2 °F - 39.2 °F 71% 30.04 in - North 5.8 mph - N/A   Clear
7:30 PM 46.4 °F 42.4 °F 39.2 °F 76% 30.01 in - North 8.1 mph - N/A   Clear
8:00 PM 45 °F - 39 °F 71% 30.03 in - North 8.1 mph - -  
8:00 PM 44.6 °F 40.2 °F 39.2 °F 81% 30.01 in - North 8.1 mph - N/A   Clear
8:30 PM 46.4 °F 41.5 °F 39.2 °F 76% 30.01 in - North 10.4 mph - N/A   Clear
9:00 PM 47 °F - 38 °F 63% 30.04 in 19 mi North 10.4 mph - -   Partly Cloudy
9:00 PM 46.4 °F 41.5 °F 39.2 °F 76% 30.01 in - North 10.4 mph - N/A   Clear
9:30 PM 46.4 °F 41.5 °F 37.4 °F 71% 30.04 in - North 10.4 mph - N/A   Clear
10:00 PM 44 °F - 38 °F 73% 30.04 in - North 12.7 mph - -  
10:00 PM 44.6 °F 38.4 °F 37.4 °F 76% 30.01 in - North 12.7 mph - N/A   Clear
10:30 PM 44.6 °F 38.8 °F 37.4 °F 76% 30.01 in - North 11.5 mph - N/A   Clear
11:00 PM 45 °F - 39 °F 72% 30.01 in - North 12.7 mph - -  
11:00 PM 44.6 °F 38.4 °F 39.2 °F 81% 29.98 in - North 12.7 mph - N/A   Clear
11:30 PM 46.4 °F 39.8 °F 37.4 °F 71% 29.98 in - North 16.1 mph - N/A   Clear